Regional Weather Roundup
Issued by NWS Austin/San Antonio, TX

Current Version | Previous Version | Text Only | Print | Product List | Glossary On
Versions: 1 2 3 4 5 6 7 8 9 10 11 12 13 14 15 16 17 18 19 20 21 22 23 24 25 26 27 28 29 30 31 32 33 34 35 36 37 38 39 40 41 42 43 44 45 46 47 48 49 50
000
ASUS44 KEWX 031601
RWREWX
SOUTH TEXAS REGIONAL WEATHER ROUNDUP
NATIONAL WEATHER SERVICE AUSTIN/SAN ANTONIO TX
1100 AM CDT MON OCT 03 2022

NOTE: "FAIR" INDICATED FEW OR NO CLOUDS BELOW 12,000 FEET WITH NO
SIGNIFICANT WEATHER AND/OR OBSTRUCTIONS TO VISIBILITY.

* - THESE STATIONS ARE NOT NWS OR FAA STATIONS...AND ARE NOT SUBJECT
    TO NWS AND FAA QUALITY CONTROL.

TXZ171-172-183>190-031700-
TEXAS HILL COUNTRY AND EDWARDS PLATEAU

CITY           SKY/WX    TMP DP  RH WIND       PRES   REMARKS
JUNCTION       SUNNY     74  47  38 CALM      30.23F
*LLANO         SUNNY     72  41  33 SE5       30.23R
BURNET         SUNNY     77  44  30 MISG      30.24R
*HORSESHOE BAY SUNNY     76  43  30 CALM      30.23S
*LAGO VISTA      N/A     78  46  32 E6        30.23R
*KERRVILLE     PTSUNNY   74  43  33 E8        30.22S
*FREDERICKSBRG SUNNY     72  43  35 SE6       30.24R
*ROCKSPRINGS   SUNNY     72  52  49 SE8       30.28S
*BOERNE        MOSUNNY   73  41  31 CALM      30.21S
HONDO          PTSUNNY   77  48  35 E3        30.20S
*UVALDE        PTSUNNY   74  55  51 CALM      30.22S
DEL RIO        PTSUNNY   73  58  59 E6        30.19R
*LAUGHLIN AFB  CLOUDY    71  58  64 E6        30.17R
*SPOFFORD      PTSUNNY   75  60  60 E3        30.18R
CARRIZO SPRGS  PTSUNNY   73  59  60 CALM      30.18R
*FAITH RANCH   MOSUNNY   79  61  53 SE7       30.19S
$$

TXZ173-191>194-202-209-217>225-228-031700-
CENTRAL AND SOUTH CENTRAL TEXAS

CITY           SKY/WX    TMP DP  RH WIND       PRES   REMARKS
GEORGETOWN     SUNNY     76  46  34 E6        30.23S
*TAYLOR        SUNNY     75  47  36 SE7       30.21S
AUSTIN/BERGSTM MOSUNNY   76  49  38 VRB5      30.19S
AUSTIN/MABRY   SUNNY     77  46  33 VRB3      30.21S
*PFLUGERVILLE  SUNNY     75  45  33 CALM      30.20R
SAN MARCOS     MOSUNNY   75  46  35 E3        30.21R
NEW BRAUNFELS  MOSUNNY   78  46  32 NE6       30.18S
*RANDOLPH AFB  PTSUNNY   78  40  26 NE6       30.16S
*SEGUIN        PTSUNNY   77  44  30 NE5       30.16F
SAN ANTONIO    PTSUNNY   77  45  32 NE6       30.19S
STINSON FIELD  MOSUNNY   80  46  30 E5        30.16S
*KELLY FIELD   MOSUNNY   78  46  31 N3        30.16S
*PLEASANTON    MOSUNNY   76  51  41 CALM      30.19R
*KENEDY        MOSUNNY   76  52  42 N3        30.18S
*LA GRANGE     NOT AVBL
*GIDDINGS      MOSUNNY   78  48  35 E6        30.19F
*GONZALES      MOSUNNY   78  47  34 NE6       30.17S
$$

TXZ163>164-176>182-195>201-210>213-226-227-235-031700-
SOUTHEAST TEXAS

CITY           SKY/WX    TMP DP  RH WIND       PRES   REMARKS
COLLEGE STN    MOSUNNY   78  49  35 E6        30.19S
*BRYAN         MOSUNNY   76  50  39 SE3       30.22R
*CALDWELL      MOSUNNY   76  49  39 E7        30.20F
*CROCKETT      MOSUNNY   77  43  29 NE7       30.19S
*BRENHAM       MOSUNNY   77  50  38 E3        30.19
HUNTSVILLE     SUNNY     79  50  36 MISG      30.18S
CONROE         MOSUNNY   77  52  41 E5        30.18S
HOUSTON BUSH   PTSUNNY   76  52  43 E6        30.16S
HOUSTON HOBBY  PTSUNNY   76  50  40 NE6       30.16S
*HOUSTON SW AP NOT AVBL
PEARLAND       PTSUNNY   75  53  46 NE6       30.17S
HOUSTON HOOKS  PTSUNNY   79  51  37 VRB3      30.17S
ELLINGTON FLD  SUNNY     73  50  43 N5        30.15S
SUGAR LAND     PTSUNNY   78  52  40 NE5       30.16S
*HOUSTON EXEC  PTSUNNY   79  50  36 E7        30.18S
*CLEVELAND MUN NOT AVBL
*WHARTON       MOSUNNY   77  51  40 NE7       30.16S
*COLUMBUS      FAIR      76  51  40 E5        30.18F
*EAGLE LAKE    MOSUNNY   76  52  43 E7        30.17S
$$

TXZ214>216-236>238-031700-
THE UPPER TEXAS COAST

CITY           SKY/WX    TMP DP  RH WIND       PRES   REMARKS
*ORANGE        MOSUNNY   80  49  34 E3        30.17R
PORT ARTHUR    MOSUNNY   80  53  39 E5        30.14S
GALVESTON      PTSUNNY   78  59  51 N8        30.15S
ANGLETON       PTSUNNY   79  56  45 NE6       30.14F
*BAY CITY      MOSUNNY   74  60  59 NE7       30.15S
PALACIOS       MOSUNNY   79  58  48 NE7       30.14S
$$

TXZ229>234-239>247-031700-
TEXAS COASTAL BEND AND RIO GRANDE PLAINS

CITY           SKY/WX    TMP DP  RH WIND       PRES   REMARKS
VICTORIA       MOSUNNY   79  55  43 NE8       30.15S
*BEEVILLE      MOSUNNY   79  48  33 NE3       30.16R
ROCKPORT       PTSUNNY   82  61  48 N8        30.13S
*PORT ARANSAS  MOSUNNY  N/A N/A N/A N12       30.15S
*PORT LAVACA   MOSUNNY   78  57  47 NE7       30.15S
*INGLESIDE     NOT AVBL
CORPUS CHRISTI PTSUNNY   82  58  43 N10       30.13S
CORPUS NAS     CLOUDY    81  63  54 N9        30.13S
*ROBSTOWN      PTSUNNY   78  57  47 MISG      30.14S
ALICE          CLOUDY    80  59  48 NE5       30.14S
KINGSVILLE NAS CLOUDY    81  60  48 NE6       30.14R
COTULLA        PTSUNNY   76  59  55 NE3       30.18R
LAREDO         PTSUNNY   78  60  53 E7        30.16R
$$

TXZ248>255-031700-
DEEP SOUTH TEXAS

CITY           SKY/WX    TMP DP  RH WIND       PRES   REMARKS
BROWNSVILLE    SUNNY     85  63  47 NE10      30.11S
PORT ISABEL    SUNNY     85  61  44 NE7       30.11S
HARLINGEN      MOSUNNY   83  60  45 NE3       30.11S
*HEBBRONVILLE  MOSUNNY   74  58  58 CALM      30.17S
MCALLEN        MOSUNNY   82  63  52 E7        30.13S
*WESLACO       MOSUNNY   81  63  53 E3        30.13
FALFURRIAS     CLOUDY    78  62  56 NE6       30.13S
EDINBURG       SUNNY     82  62  50 E5        30.13S
*ZAPATA        SUNNY     79  65  62 E3        30.16S
$$

TXZ213>215-236>238-242>244-246-247-251-254-255-031700-
CMAN STATIONS

STATION/POSITION TIME  TEMP    WIND        PRES    WAVE
                       AIR SEA DIR/SP/G            HT/PER
                 (UTC) (F)     (DEG/KT/KT) (MB)    (FT/S)
SEA RIM ST PARK  1500   72      30/  8/ 10 1020.8
NORTH JETTY/GLS  1530   71 77   70/  9/ 11 1019.6
EAGLE POINT      1530   72 74   30/  7/  9 1020.4
MORGANS POINT    1530   71 78  360/  3/  5 1020.5
MISSION/ARANSAS  1500   73      20/  7     1021.0
PORT O`CONNOR    1524   73 81  350/ 10/ 11 1020.4
PORT ARANSAS     1500   75      10/ 11/ 12   N/A
BAFFIN BAY       1524   76 79  350/ 12/ 14 1020.4
PORT ISABEL      1524   81 83   20/  3/  9 1019.1
$$



USA.gov is the U.S. government's official web portal to all federal, state and local government web resources and services.